Regional Weather Roundup
Issued by NWS

Home | Current Version | Previous Version | Text Only | Print | Product List | Glossary Off
Versions: 1 2 3 4 5 6 7 8 9 10 11 12 13 14 15 16 17 18 19 20 21 22 23 24 25 26 27 28 29 30 31 32 33 34 35 36 37 38 39 40 41 42 43 44 45 46 47 48 49 50

000
ASUS43 KFSD 290402
RWRSD

WEATHER ROUNDUP FOR SOUTH DAKOTA
NATIONAL WEATHER SERVICE SIOUX FALLS SD
1100 PM CDT SUN AUG 28 2016

NOTE: "FAIR" INDICATES FEW OR NO CLOUDS BELOW 12,000 FEET WITH NO
SIGNIFICANT WEATHER AND/OR OBSTRUCTIONS TO VISIBILITY.


SDZ001>005-009-010-012>017-290500-
NORTHWEST AND NORTH CENTRAL SOUTH DAKOTA

CITY           SKY/WX    TMP DP  RH WIND       PRES   REMARKS
BUFFALO          N/A     71  47  42 NE14      30.03R
FAITH            N/A     75  50  41 SE10      30.02R
MOBRIDGE       CLEAR     79  59  50 E9        29.95R
$$

SDZ012>016-024>037-041>051-057-063-072>074-290500-
SOUTHWEST AND SOUTH CENTRAL SOUTH DAKOTA

CITY           SKY/WX    TMP DP  RH WIND       PRES   REMARKS
RAPID CTY ARPT CLEAR     69  50  50 N5        30.06R
PIERRE         CLEAR     77  60  55 S9        29.97R
CUSTER         CLEAR     64  40  41 NW5       30.23R
ELLSWORTH AFB  CLEAR     74  49  40 S2        30.06
PHILIP         CLEAR     71  59  65 CALM      30.00R
PINE RIDGE     CLOUDY    70  52  52 NW3       30.09R
WINNER         FAIR      80  63  55 S18       30.05R
$$

SDZ004>011-016>023-039-040-290500-
NORTHEAST SOUTH DAKOTA

CITY           SKY/WX    TMP DP  RH WIND       PRES   REMARKS
ABERDEEN       PTCLDY    79  67  66 S14       29.98R
WATERTOWN      CLEAR     75  70  84 S13       30.05R
BROOKINGS        N/A    N/A N/A N/A MISG        N/A
$$

SDZ017-020-022-023-036>040-048>070-290500-
SOUTHEAST SOUTH DAKOTA

CITY           SKY/WX    TMP DP  RH WIND       PRES   REMARKS
SIOUX FALLS    PTCLDY    79  65  62 S14       30.09S
HURON          CLEAR     78  67  68 S14G23    30.01R
CHAMBERLAIN    CLEAR     80  65  60 S10G16    30.03R
MITCHELL       CLEAR     79  71  76 S18G25    30.05R
YANKTON        CLEAR     75  66  73 S8        30.08S
$$

ABBREVIATIONS USED IN REMARKS
   TC - TEMPERATURE IN CELSIUS
  WCI - WIND CHILL INDEX
   HX - HEAT INDEX
  VSB - VISIBILITY





USA.gov is the U.S. government's official web portal to all federal, state and local government web resources and services.